Theta_e
281 281 281 281 281 281 281 281 281 281 281 281 281 280 278 277 275 273 274 276 277 279 282 279 283 286 287 288 289 290 290 292 292 293 294 295 296 297 300 302 304 304 305 305 306 307 307 307 308 309 310 312 313 316 320 321 323 324 324 325 328 329 330 329 329 328 328 328 328 328 327 326 327 328
280 280 280 280 280 280 281 280 281 281 281 280 280 280 280 279 276 275 274 274 278 278 280 281 280 283 284 286 287 288 288 290 290 290 291 293 295 297 298 300 302 304 304 305 306 307 308 308 308 308 309 310 313 315 317 321 322 323 325 328 330 329 329 329 328 327 326 327 327 327 327 326 327 327
279 279 279 279 279 280 280 280 280 280 280 279 280 279 279 279 278 277 276 273 276 280 277 279 281 282 283 285 286 287 287 288 288 288 289 290 291 292 293 295 298 300 302 303 304 305 306 308 310 309 309 312 313 314 316 319 321 321 323 328 329 328 328 328 326 327 325 326 327 327 327 327 327 328
279 278 278 278 278 279 279 279 279 279 279 279 278 278 278 278 278 277 275 273 273 278 278 278 280 282 282 283 282 283 284 285 286 285 286 287 288 288 291 294 297 300 301 303 304 304 305 305 307 310 311 312 313 314 315 317 320 322 323 326 329 328 326 326 325 325 324 324 325 325 325 325 326 327
277 277 277 277 277 278 277 277 277 277 278 278 278 278 277 276 277 276 275 274 274 277 280 279 280 281 281 280 281 281 282 283 285 287 287 288 289 291 293 294 294 297 300 301 302 303 304 304 305 306 308 310 312 313 315 316 318 319 321 323 324 325 325 326 325 323 323 323 323 324 323 324 324 325
276 276 275 275 275 276 275 275 275 276 276 276 276 275 275 275 275 276 275 274 274 273 277 277 279 279 281 279 281 280 279 280 282 283 285 287 290 291 293 293 294 296 298 301 303 303 304 304 305 305 305 307 310 313 314 315 316 318 319 319 320 322 323 324 324 323 321 323 323 323 323 323 324 324
274 273 273 273 274 274 273 273 274 275 275 274 274 274 274 274 274 275 275 274 272 273 274 277 276 277 278 277 277 279 279 280 281 280 281 282 285 286 288 292 294 296 299 302 303 303 304 304 304 305 305 305 306 308 311 314 315 316 318 318 318 318 319 321 321 321 320 322 324 323 322 323 324 324
271 271 271 271 272 272 271 272 272 273 273 272 272 272 273 274 273 274 274 274 273 273 273 274 275 276 276 276 278 278 279 280 280 281 282 283 283 284 286 290 294 296 299 300 301 303 303 304 304 304 305 305 306 307 309 312 314 315 315 315 316 317 317 317 318 318 317 320 322 323 322 322 323 323
271 270 270 270 271 271 270 270 270 271 270 271 271 271 272 272 272 273 274 274 274 273 272 273 275 276 275 276 277 277 276 278 280 282 283 284 285 287 290 292 294 295 298 299 300 301 302 303 303 304 305 305 306 307 308 310 313 313 313 313 314 316 316 316 316 315 315 316 317 320 321 322 322 322
270 270 270 270 270 270 269 269 269 270 270 270 270 270 271 271 272 272 272 273 273 273 273 273 273 274 274 274 275 276 278 279 279 281 284 286 287 288 289 291 293 295 297 298 300 300 300 301 302 303 304 305 305 306 307 309 311 311 310 311 312 314 315 315 315 315 314 314 315 317 319 320 322 321
271 271 271 270 270 270 270 269 269 270 270 270 270 270 270 271 271 271 271 272 272 272 272 272 273 273 274 274 273 276 278 278 278 277 278 280 284 288 290 291 293 295 297 298 299 299 300 300 302 303 303 304 304 305 305 307 310 309 309 310 311 312 313 313 313 314 314 313 314 314 314 316 320 320
271 271 272 271 271 270 270 270 270 270 270 270 270 271 271 271 271 271 271 271 272 271 272 271 272 273 273 274 275 276 277 276 278 280 279 278 280 285 290 291 292 295 296 296 299 299 299 300 301 301 302 303 305 305 304 305 307 308 309 310 311 312 312 312 312 312 312 312 313 313 313 314 315 319
271 271 272 272 272 272 274 275 275 275 275 271 270 271 272 271 271 271 271 271 271 271 271 271 272 272 272 273 273 274 275 276 277 281 285 284 286 288 290 291 294 295 295 296 296 296 297 298 299 303 305 305 303 303 302 304 304 307 309 310 311 311 311 312 312 311 310 311 311 312 313 313 313 314
272 272 272 272 275 275 276 276 276 277 277 277 275 273 273 272 272 272 271 271 271 271 270 271 271 271 271 273 273 273 274 276 279 280 280 280 284 288 289 291 292 295 295 294 293 295 297 297 298 299 300 306 306 307 308 308 310 307 308 310 310 311 311 311 311 310 310 310 310 311 311 312 312 313
271 272 273 273 274 274 275 274 276 277 277 278 278 278 278 278 275 273 272 272 273 272 271 272 272 272 272 274 275 275 276 277 277 278 281 282 283 285 286 285 288 291 294 292 290 290 292 293 294 297 299 302 305 309 310 307 307 307 308 309 310 310 310 310 310 310 310 310 310 310 310 311 311 312
272 272 272 272 272 272 273 273 273 274 276 277 278 278 278 279 279 280 276 274 273 274 273 273 274 274 273 274 275 276 276 277 278 278 280 282 283 283 285 286 285 290 291 288 287 287 290 291 291 292 295 301 306 309 309 308 308 308 308 309 309 310 310 310 310 309 309 309 310 310 310 310 311 311
271 271 271 271 272 272 275 274 273 273 273 275 277 277 278 278 279 279 280 281 277 276 275 274 274 275 275 275 276 277 277 278 278 279 280 280 282 283 284 286 287 288 290 288 286 285 287 290 290 290 294 298 303 309 308 308 308 308 307 308 309 309 309 309 309 309 309 309 309 309 310 310 310 310
271 272 271 271 271 272 272 272 272 272 272 272 272 273 273 273 275 278 279 279 280 279 276 275 274 276 277 276 277 278 279 277 276 276 276 278 280 282 284 287 287 289 289 286 285 284 286 289 290 289 293 297 301 306 310 308 308 308 308 308 308 308 308 309 309 309 309 309 309 309 309 309 309 309
272 272 272 272 272 272 272 273 273 272 272 272 272 272 272 273 274 274 275 276 276 277 277 276 276 276 277 277 277 278 278 278 278 279 279 280 281 283 285 286 287 287 288 287 286 282 287 289 290 290 292 296 300 306 309 307 307 307 307 307 308 308 308 308 308 308 308 309 309 309 309 309 309 309
273 273 273 272 272 273 272 274 277 276 274 273 272 272 272 273 274 274 277 278 279 278 277 277 277 278 278 280 279 279 278 278 279 280 281 281 281 281 281 281 285 285 288 288 287 285 286 289 289 289 292 295 298 306 310 307 307 307 307 307 308 308 308 308 308 308 308 308 308 308 308 308 308 308
273 273 273 273 273 273 273 276 278 278 277 273 272 272 272 273 273 273 275 278 280 280 280 281 282 283 283 283 284 283 284 282 281 280 279 278 281 281 280 282 283 284 287 288 288 287 285 288 288 288 290 293 296 304 310 309 306 307 307 307 307 307 307 307 307 307 307 307 308 308 308 308 308 306
274 274 276 276 274 273 273 277 278 278 276 273 273 272 272 272 272 273 274 275 276 280 281 281 281 282 282 284 284 283 285 285 284 280 277 279 281 280 282 281 283 285 287 287 288 286 285 287 289 288 290 291 295 302 308 308 308 305 306 306 307 307 307 307 307 307 307 307 307 308 308 307 306 309
273 274 274 275 275 275 275 278 278 278 277 274 273 273 273 272 272 274 275 275 275 275 275 276 277 278 281 281 280 281 283 284 284 282 281 282 281 280 282 283 283 282 284 287 288 285 285 286 287 287 287 288 295 302 306 306 308 308 307 308 309 305 306 307 307 307 307 307 307 307 307 307 307 311
272 272 272 273 275 277 277 277 278 278 278 275 274 274 273 272 272 275 275 276 276 276 276 277 278 278 279 280 280 280 281 281 282 282 282 282 282 282 282 283 284 282 284 287 287 285 285 286 285 287 287 285 289 300 304 304 307 307 308 308 309 305 305 305 306 306 306 307 307 307 307 306 308 312
270 270 270 271 274 276 276 277 277 278 278 278 275 274 273 274 275 277 274 275 277 276 276 276 277 277 278 279 280 280 281 281 283 284 284 285 285 284 283 283 284 284 285 287 290 286 284 285 285 286 286 286 287 295 301 304 306 306 306 308 308 308 309 309 308 310 305 306 307 307 306 306 308 311
269 269 269 270 272 275 276 277 277 278 278 278 275 274 278 279 280 276 276 276 276 275 276 276 276 277 278 279 279 280 281 282 283 284 285 286 286 287 287 286 284 284 284 288 290 287 285 284 285 285 286 285 286 294 299 301 305 306 307 309 309 308 308 308 309 310 310 309 309 308 308 306 308 308
268 269 269 270 274 276 276 276 277 277 277 276 274 277 278 279 280 279 277 277 276 276 276 276 276 277 278 278 279 280 281 283 284 285 286 286 287 287 288 288 288 287 287 288 287 287 286 285 286 285 285 285 285 288 297 300 301 304 305 307 307 308 308 309 308 308 309 309 309 306 306 306 307 308
269 269 269 271 275 275 275 276 276 276 275 273 276 277 277 277 277 276 277 277 276 276 276 276 276 277 278 279 280 281 282 283 284 285 286 286 287 288 288 288 287 287 287 287 287 287 286 285 286 286 286 285 284 285 294 301 300 302 302 305 306 308 309 308 308 306 306 308 309 308 308 308 309 310
269 272 275 275 274 274 274 274 274 273 272 274 275 275 276 275 273 273 274 275 276 275 275 275 276 276 278 279 281 282 283 284 285 285 285 286 287 287 286 286 287 287 287 287 287 286 286 286 286 286 286 286 285 286 291 299 300 301 302 301 302 305 307 309 309 307 307 309 308 307 308 309 309 309
273 273 273 273 272 272 271 269 269 269 269 273 273 273 273 271 270 271 271 272 272 273 275 276 276 277 279 280 282 283 283 283 283 284 284 285 285 286 285 285 285 286 286 286 287 287 287 287 287 287 286 286 286 286 289 298 299 302 300 302 303 302 306 308 308 308 306 306 307 307 309 310 310 308
268 268 268 268 271 270 271 271 271 270 270 269 269 269 269 269 270 270 270 270 271 272 273 275 277 279 280 282 283 282 283 282 283 284 284 284 284 285 285 284 284 285 286 287 287 287 287 287 288 288 286 286 287 287 290 299 300 300 301 302 302 300 303 307 307 307 307 307 308 307 308 309 308 304
266 265 268 267 266 266 266 266 266 266 267 267 267 268 268 268 269 271 272 273 271 272 273 273 274 277 280 281 281 282 283 283 284 284 284 284 284 285 285 283 283 284 285 286 287 287 287 288 288 289 289 287 286 288 292 298 301 301 301 301 301 304 305 305 305 306 307 306 305 305 306 307 307 308
265 264 264 263 263 263 263 264 264 264 265 265 266 267 267 268 268 268 269 268 269 270 270 270 271 272 274 278 282 282 282 282 283 284 284 284 284 284 284 283 283 283 283 284 286 287 288 288 289 290 291 291 291 290 291 296 301 302 301 300 301 302 304 306 305 305 305 304 303 303 303 305 306 307
262 262 261 262 262 262 262 262 263 263 264 264 265 266 268 267 267 267 268 268 269 269 269 270 270 270 273 275 279 282 282 282 283 284 284 283 284 283 283 283 283 284 285 285 286 287 288 289 290 290 290 291 292 292 293 297 300 301 301 302 301 301 303 304 305 304 304 303 303 301 301 302 304 306
261 260 260 261 261 261 262 261 262 263 263 264 264 265 266 266 266 267 267 268 268 268 268 269 270 270 271 273 275 278 281 282 283 283 284 284 284 284 284 283 283 284 285 285 286 287 289 290 290 290 290 291 292 293 292 291 299 301 301 302 302 302 301 303 302 302 303 303 303 301 300 300 302 304
260 260 260 260 260 261 261 261 262 262 263 263 264 264 264 265 266 266 266 268 268 268 268 268 269 269 270 271 273 274 276 280 282 283 283 284 284 284 284 284 284 285 285 286 286 288 289 290 291 290 289 290 289 289 294 295 294 300 301 300 301 301 301 301 301 301 302 301 301 301 300 299 300 302
259 259 259 259 260 260 260 261 261 262 263 263 263 264 264 265 266 266 267 268 268 268 268 268 268 269 269 270 271 272 275 277 279 282 283 284 284 284 284 284 284 285 285 286 287 288 290 291 291 291 290 289 288 290 293 295 296 297 302 300 299 300 300 300 300 300 301 301 300 301 300 301 300 302
259 259 259 259 259 260 260 261 261 262 262 263 264 264 264 265 266 267 268 267 267 268 268 267 267 268 268 269 269 270 271 274 277 279 283 284 284 284 284 284 284 285 285 286 287 288 291 292 292 292 291 289 289 291 292 294 296 297 297 299 299 299 300 300 299 300 300 301 301 301 301 300 300 302
259 258 258 259 259 260 260 260 261 261 262 263 263 263 264 265 266 266 266 267 267 267 267 266 266 267 267 267 268 269 269 270 272 275 279 283 284 284 284 284 284 285 286 286 287 289 291 292 292 293 293 292 292 293 295 295 296 299 298 296 299 299 300 300 300 300 300 300 300 300 298 296 299 297
258 258 258 259 259 259 260 260 261 262 262 263 263 263 264 265 265 265 266 267 267 267 266 266 266 266 266 267 267 268 268 269 270 273 276 279 284 285 285 285 285 286 286 287 287 289 291 292 293 294 294 295 296 296 295 296 299 300 299 297 297 299 301 301 300 300 299 301 301 299 296 298 297 297
257 257 258 258 259 259 260 260 261 261 262 263 263 265 264 265 265 266 266 267 267 266 265 265 265 265 265 266 266 266 267 268 270 272 274 278 281 284 285 285 285 286 286 286 288 290 291 293 294 294 293 293 293 295 296 294 294 295 296 297 296 297 298 299 303 301 300 300 300 299 298 298 297 298
256 256 257 258 258 259 260 260 261 261 262 263 263 263 264 265 266 269 267 267 266 266 265 265 265 265 265 265 266 266 266 267 268 270 273 275 279 283 285 285 285 286 286 287 289 291 293 294 292 291 292 295 296 295 293 293 294 295 296 297 297 295 296 297 297 298 303 302 301 299 298 297 298 297
256 256 256 257 258 259 259 260 261 261 262 262 263 263 263 264 266 266 266 266 266 265 265 264 265 264 264 265 265 266 266 266 267 269 271 274 277 281 284 285 286 287 287 289 291 292 292 292 291 293 295 296 295 296 294 294 295 296 295 295 295 296 297 294 296 296 297 298 299 301 302 299 298 296
255 255 256 257 257 258 259 260 260 261 262 262 263 263 263 264 265 266 266 266 265 265 265 264 264 264 264 264 265 265 266 266 267 269 270 273 277 281 285 286 287 287 288 290 291 291 292 293 294 294 295 295 295 295 294 294 294 295 295 295 295 295 295 295 295 294 296 297 296 298 298 297 291 294
254 255 256 256 257 258 259 259 260 261 261 262 262 263 264 265 266 266 266 266 265 265 264 264 264 264 264 264 264 264 265 268 269 269 271 273 276 280 285 287 288 288 289 291 291 291 292 293 294 295 295 295 295 295 294 294 294 294 294 293 293 295 295 295 296 296 297 297 294 293 295 295 292 294
Wind_Speed
12 11 13 13 12 12 12 12 12 13 13 13 13 15 17 16 16 17 16 19 18 15 12 13 10 10 11 11 11 13 12 13 14 12 13 14 15 19 25 27 29 29 30 29 29 29 31 33 31 31 30 31 32 34 35 32 28 32 34 37 38 37 37 39 42 41 40 39 38 37 37 37 36 35
11 12 12 12 12 11 12 13 13 13 15 16 15 16 17 16 18 16 18 19 14 19 16 15 13 10 12 13 13 13 14 18 20 17 18 17 16 21 25 25 25 24 24 24 22 26 29 31 31 31 31 30 32 33 35 34 30 31 34 37 38 37 39 40 42 44 43 43 42 40 39 37 36 34
11 12 14 13 14 15 15 16 15 16 15 16 16 16 15 17 18 20 19 21 17 14 21 19 13 15 16 13 13 13 14 16 19 18 18 20 23 28 25 31 32 31 30 27 25 24 25 29 29 29 30 30 31 32 33 36 33 32 33 38 41 42 41 40 37 38 37 39 41 42 40 38 38 37
11 13 15 15 14 14 14 15 15 16 15 16 17 17 17 18 20 18 19 22 24 14 21 24 18 17 18 18 21 20 17 18 24 20 22 24 31 25 21 27 28 26 27 27 27 26 25 25 25 25 27 29 30 32 34 36 36 34 35 37 39 40 42 43 41 39 38 37 35 36 38 38 37 36
13 14 15 15 16 16 16 16 16 15 16 16 16 17 17 15 16 20 18 19 20 18 19 21 15 17 17 19 19 20 18 18 17 18 18 19 18 18 18 18 24 28 28 30 29 27 25 24 24 24 24 26 28 31 33 36 37 34 32 35 36 35 37 40 39 36 40 42 40 37 34 36 37 35
11 12 14 15 14 15 16 16 16 16 15 16 16 16 18 17 17 18 18 18 18 23 20 20 16 18 14 17 16 19 20 21 20 21 19 17 18 17 16 15 16 26 29 26 25 25 24 25 24 25 26 27 27 29 32 35 37 34 34 32 33 38 39 35 38 39 35 39 42 40 38 34 35 34
12 14 14 15 14 13 16 16 16 16 17 17 18 19 17 19 19 19 18 18 20 21 22 19 20 12 16 18 20 20 19 20 21 22 22 21 19 18 20 19 15 23 27 28 26 25 24 24 24 24 25 26 26 26 29 34 36 33 32 32 33 33 34 36 35 36 37 37 37 40 41 39 36 32
12 13 14 14 14 15 17 16 16 15 17 16 16 18 18 18 20 19 19 20 19 18 23 19 15 16 14 16 18 17 19 20 22 19 19 20 21 21 21 21 18 20 27 30 30 26 23 23 24 25 25 24 25 25 28 32 35 33 31 32 33 35 36 36 36 37 36 37 37 34 35 38 38 37
13 13 14 14 14 16 18 17 16 16 19 17 16 17 16 18 18 16 16 17 16 17 21 20 16 15 15 17 18 20 19 20 20 21 20 20 20 19 18 16 16 23 31 31 30 25 22 23 25 26 26 25 25 24 26 30 33 32 32 32 34 37 38 40 40 39 39 39 39 37 36 35 35 37
12 12 14 14 16 18 18 17 17 18 19 18 18 19 18 17 17 18 18 17 17 18 19 17 20 15 17 17 18 18 18 17 19 18 16 16 18 17 16 15 14 14 14 13 16 17 20 22 26 28 27 27 25 24 25 30 33 32 31 31 34 36 36 39 44 44 41 40 40 40 40 39 35 36
15 17 17 18 17 18 18 19 20 19 20 16 21 19 18 18 18 18 17 17 18 19 19 18 18 18 18 17 19 17 17 19 18 18 20 20 18 16 15 15 13 13 15 18 20 16 14 16 17 20 23 26 26 26 26 28 34 31 31 32 33 35 36 37 37 40 44 44 42 41 39 39 37 36
15 16 17 17 18 19 19 20 19 20 19 17 19 18 17 17 18 17 17 16 16 16 16 16 16 15 17 15 16 17 17 19 19 16 16 19 19 17 14 14 15 13 12 12 8 9 11 14 20 26 27 26 24 23 23 28 33 34 31 32 33 35 35 35 36 35 35 40 42 41 40 38 36 36
16 16 18 18 19 19 25 29 27 26 25 19 17 16 16 17 16 17 15 15 14 15 15 15 17 15 16 17 16 18 16 16 17 16 13 14 16 16 14 13 13 12 14 9 7 8 7 10 11 11 11 14 20 22 27 25 34 36 32 33 34 35 36 38 37 36 37 35 35 36 38 37 35 34
15 17 16 18 25 28 30 31 32 33 33 33 27 21 20 18 16 16 15 15 13 14 17 14 15 16 15 19 16 20 19 18 18 18 18 18 17 15 16 14 10 10 9 7 8 7 5 7 11 12 14 14 13 13 15 18 22 32 34 34 34 35 37 39 38 39 38 38 35 34 35 37 37 35
18 17 17 16 21 22 24 23 30 30 32 31 32 34 34 30 22 17 17 15 14 13 15 15 14 16 16 16 17 17 19 17 19 18 15 15 17 16 10 7 3 4 2 3 5 8 6 6 10 11 12 14 14 13 16 22 28 31 34 34 36 36 38 38 40 39 39 39 39 38 36 36 37 36
16 17 16 17 14 16 19 19 21 25 30 32 32 33 32 32 34 32 25 19 16 16 15 16 15 12 18 15 17 17 15 18 17 18 16 17 16 17 14 7 6 1 7 7 7 11 7 6 9 11 13 12 13 16 19 26 29 32 33 35 36 39 39 38 39 41 40 40 40 39 38 37 38 38
17 16 17 19 18 17 25 21 19 20 21 26 31 32 32 32 33 32 35 34 25 18 19 18 18 15 14 19 15 17 18 16 18 16 14 14 15 15 17 10 6 4 2 6 9 12 10 6 11 11 13 11 13 16 22 27 30 32 34 35 35 36 42 44 42 41 41 40 40 39 39 38 38 38
18 19 18 18 18 16 18 18 20 21 19 19 18 18 18 18 22 29 31 32 35 30 22 19 18 18 15 21 17 20 20 21 19 19 21 19 17 17 16 13 11 9 6 9 10 13 10 6 9 13 12 11 14 16 20 28 31 32 34 35 36 37 38 41 45 43 42 42 41 41 39 38 38 39
15 17 19 18 20 22 20 19 20 19 19 18 18 18 18 18 19 20 19 18 17 18 17 22 22 21 21 20 23 20 20 19 19 17 18 19 18 18 18 17 14 12 9 10 8 11 7 3 9 13 12 12 14 17 22 28 31 33 34 36 37 37 37 36 39 44 44 43 42 40 39 38 37 36
18 17 16 20 19 17 21 23 32 28 22 19 20 20 19 18 18 20 21 28 28 24 22 21 24 20 22 24 22 20 19 18 18 17 17 17 18 18 17 17 12 11 7 9 10 8 7 6 9 12 11 11 14 18 16 25 32 33 34 36 37 38 38 39 38 38 41 42 42 40 38 37 38 37
17 17 18 16 20 21 18 26 30 32 29 20 19 19 19 18 17 18 17 26 34 36 38 39 40 40 40 38 38 36 38 28 21 16 18 20 15 15 16 14 10 11 7 7 9 6 9 6 7 11 11 11 15 17 14 16 29 33 35 37 37 37 37 38 38 38 38 38 39 40 39 38 37 39
13 17 27 26 20 21 21 27 31 33 27 19 18 19 20 21 20 17 14 15 18 30 34 35 34 34 36 36 35 35 36 37 30 19 20 17 14 17 16 16 11 9 8 7 4 6 9 8 5 8 9 11 13 16 13 17 23 33 32 38 38 39 41 40 40 39 38 37 37 37 38 37 36 29
16 15 19 27 26 23 25 32 31 32 27 20 18 19 20 20 20 17 16 17 17 16 17 20 22 23 25 22 20 21 33 35 32 23 22 17 16 18 16 14 11 11 11 8 7 7 0 4 5 4 8 10 13 12 12 15 18 20 21 26 31 38 39 41 41 41 41 39 39 38 38 37 34 21
13 17 18 20 25 28 30 30 33 32 33 25 21 19 19 19 22 15 16 17 15 16 17 17 17 18 17 16 17 17 18 21 23 23 20 18 18 17 18 16 13 13 7 4 2 3 4 4 8 1 5 8 11 6 11 13 18 20 22 25 24 37 42 43 37 44 42 40 41 39 38 38 34 22
17 17 17 16 23 29 30 31 33 35 35 32 24 19 17 18 22 24 18 20 26 19 18 17 17 17 16 16 16 17 17 16 16 17 19 19 19 19 19 17 15 12 11 8 7 4 6 2 8 6 8 5 12 14 9 13 15 19 18 20 20 25 26 27 26 29 37 41 41 40 38 39 38 28
16 17 16 17 23 31 32 34 35 35 33 34 22 20 29 35 37 26 19 17 15 15 15 15 15 16 15 14 14 15 15 15 15 15 15 15 18 19 18 17 14 11 12 7 9 5 6 9 6 8 8 7 13 15 10 12 16 16 19 20 21 21 22 22 23 25 25 25 27 32 35 40 38 36
17 17 18 19 29 33 36 35 33 31 33 27 19 30 31 32 35 27 13 13 13 14 14 14 16 15 15 15 14 14 14 13 13 13 13 14 14 15 16 16 13 12 11 9 8 8 8 10 4 6 11 8 10 14 12 12 12 14 16 20 21 21 20 20 20 20 22 23 21 34 36 38 39 38
17 17 17 21 34 34 33 32 30 30 28 21 29 30 31 30 27 15 12 10 11 12 13 14 14 14 14 13 13 13 12 12 12 11 11 11 13 12 10 11 11 10 12 13 12 10 11 12 10 8 8 9 9 12 12 9 10 14 15 14 19 21 21 22 21 20 20 22 22 24 21 22 24 25
15 22 32 33 30 30 29 30 29 24 24 27 28 29 28 26 12 12 11 11 11 11 12 14 15 15 16 15 14 12 12 12 12 11 10 10 10 9 10 11 11 11 11 12 13 12 12 11 12 8 8 9 9 11 13 11 14 17 18 18 16 20 20 20 21 21 20 20 21 22 23 23 22 22
27 27 27 28 26 24 22 18 16 16 17 26 27 25 23 13 12 11 11 11 11 12 12 12 14 14 13 13 13 13 13 12 12 11 10 11 11 9 10 10 11 11 12 13 13 12 12 11 11 9 11 12 10 12 14 13 15 17 17 19 17 15 20 21 21 22 22 22 22 23 22 24 24 23
13 17 18 17 22 20 24 24 23 21 22 17 15 13 13 12 11 11 10 11 12 13 13 14 14 14 14 12 11 11 11 12 13 12 12 12 11 10 10 11 12 11 12 13 14 13 12 11 11 11 12 13 10 12 15 15 15 16 19 18 20 20 18 22 22 21 22 23 22 22 21 21 21 22
13 13 15 16 12 13 13 13 12 12 12 13 14 13 12 12 12 14 19 17 12 12 12 12 13 13 13 13 13 12 12 12 12 11 12 12 11 10 10 11 12 12 11 11 11 13 14 14 13 13 14 13 13 14 13 14 18 19 18 18 19 17 20 23 24 23 24 23 21 20 19 20 21 19
11 10 11 10 12 12 14 14 13 12 13 12 12 14 13 11 11 11 10 11 12 12 12 13 12 13 12 13 12 12 12 12 11 10 11 11 11 11 11 13 12 11 12 11 9 10 10 12 14 15 14 13 14 14 14 11 16 20 19 19 19 18 19 19 21 22 24 22 20 19 18 18 20 21
10 10 10 11 12 13 13 14 14 15 14 14 14 12 15 14 13 13 12 12 12 12 13 13 13 13 12 12 12 11 13 11 11 11 12 11 11 12 12 12 11 12 12 12 10 9 8 9 10 12 13 13 12 11 13 12 14 19 21 19 18 18 19 21 20 21 21 21 22 21 19 17 17 18
8 10 10 11 12 12 13 13 14 15 15 15 15 14 11 12 15 16 13 13 13 13 13 13 12 12 12 12 12 13 12 12 11 10 11 11 12 12 11 11 11 11 11 11 10 9 8 8 8 9 9 9 9 10 9 7 9 17 19 21 20 20 18 19 20 21 21 18 19 22 19 17 16 16
9 9 10 11 11 12 13 13 14 14 14 15 15 15 14 12 13 15 15 15 13 13 13 13 13 12 12 11 12 12 13 14 12 11 11 11 11 12 11 12 11 12 10 10 10 9 8 9 8 9 9 7 7 8 11 3 2 9 19 18 17 19 18 18 19 19 20 18 17 18 18 18 15 15
9 9 10 10 11 12 12 13 14 14 14 14 14 14 14 13 13 12 15 17 14 12 13 13 13 13 13 12 13 13 13 12 13 12 12 11 11 11 12 11 11 12 11 11 10 10 9 9 9 10 9 7 8 10 8 0 5 6 11 20 17 16 18 18 19 18 17 18 17 16 17 17 17 17
9 10 10 11 11 12 12 12 13 14 14 14 15 15 15 15 16 16 16 14 13 12 13 12 13 14 13 13 12 13 13 12 12 12 12 11 11 11 11 11 10 10 11 10 11 11 10 10 10 10 10 9 9 10 9 3 5 6 7 8 18 17 16 18 19 19 17 15 17 16 14 14 13 13
9 10 10 10 11 11 12 13 13 13 14 13 13 14 15 13 13 17 16 13 13 13 12 12 12 13 14 14 13 13 13 12 12 12 12 11 11 11 11 11 11 10 9 10 11 11 11 12 11 11 12 12 12 11 11 13 13 11 8 10 10 16 16 18 19 19 19 17 15 11 5 5 9 13
10 10 9 10 12 12 11 12 12 13 14 14 13 12 13 13 16 15 12 13 13 13 14 14 16 15 13 13 13 13 13 15 14 12 12 12 12 11 12 10 11 10 10 11 12 12 13 13 14 14 13 12 9 5 5 6 6 9 11 13 19 19 18 17 19 20 17 17 16 15 13 13 11 8
9 11 11 11 11 11 12 12 13 13 13 14 13 15 14 14 14 13 13 15 14 14 14 14 14 13 13 13 13 13 14 13 12 12 12 12 13 12 12 12 11 11 11 12 13 14 15 15 15 18 11 5 7 8 7 7 11 10 10 10 18 24 23 24 23 23 21 20 19 17 18 20 18 17
10 10 11 11 12 13 12 13 13 13 13 13 13 14 15 14 13 22 19 16 14 14 13 13 13 14 14 13 13 13 13 14 13 13 12 11 12 13 14 13 12 13 13 14 15 15 12 7 6 6 8 10 11 12 11 12 16 16 15 12 11 15 18 16 15 15 17 22 22 19 16 15 15 16
10 10 11 12 12 12 11 12 13 13 14 13 13 14 14 13 15 17 13 14 14 13 13 14 13 13 12 12 12 13 13 14 13 13 13 13 13 13 13 13 14 15 15 15 12 9 5 7 8 10 12 12 12 12 13 15 15 16 15 13 13 10 9 13 16 15 13 19 22 24 25 23 22 21
10 11 11 11 11 13 13 12 13 13 14 14 14 14 13 13 17 17 14 14 15 14 14 14 14 14 14 12 13 13 12 13 13 14 13 13 13 14 14 14 14 14 14 12 9 6 8 11 12 13 13 13 12 15 15 12 12 14 16 16 14 14 13 8 9 10 13 17 12 7 5 7 14 9
10 10 11 11 12 13 13 12 13 13 13 13 13 13 13 13 16 16 14 14 14 15 15 14 15 15 15 14 13 14 13 15 15 14 14 14 14 15 16 15 13 13 13 11 9 10 12 13 12 11 12 12 13 14 14 14 13 13 13 15 17 15 13 13 15 15 13 10 6 12 15 12 13 24
Wind_Direction
272 269 265 263 263 261 259 259 257 258 261 261 260 258 256 256 261 273 276 276 283 286 281 285 274 276 283 281 279 274 270 279 293 291 286 283 277 266 257 251 251 254 258 256 254 250 249 250 248 248 249 250 252 254 248 240 232 222 210 206 205 202 197 192 190 187 185 188 190 190 191 191 188 185
269 268 267 266 268 266 264 263 262 261 264 264 261 260 256 253 254 258 264 271 271 286 284 274 281 283 286 283 278 279 283 284 287 291 288 285 282 287 293 295 289 279 269 267 270 272 265 253 246 245 246 246 249 250 249 240 231 223 213 209 203 201 200 199 197 191 185 184 185 188 190 189 185 187
269 269 269 267 270 273 270 271 269 268 268 265 263 260 259 255 253 258 261 269 267 269 282 276 274 283 280 281 287 287 284 286 286 281 282 282 284 286 283 280 278 275 274 270 265 263 266 267 253 243 244 244 246 247 247 241 231 224 215 211 204 201 199 200 198 192 188 188 185 184 187 186 185 185
272 272 272 272 272 274 273 271 269 269 266 265 262 262 261 260 257 259 262 262 268 262 269 275 278 276 281 284 284 281 280 280 279 278 274 271 277 282 278 268 266 268 266 262 260 258 259 263 265 257 248 247 246 247 246 242 232 227 217 214 207 200 197 194 194 190 185 185 187 187 185 184 185 184
271 271 273 272 274 277 274 272 274 272 270 265 263 263 263 263 264 262 262 263 269 267 260 269 275 279 286 283 276 276 274 276 277 272 269 268 266 264 262 264 264 265 261 254 253 252 254 258 260 260 260 256 251 249 246 241 234 225 222 216 207 203 202 198 193 192 184 180 181 184 186 185 184 184
270 272 273 276 279 277 275 276 275 272 269 268 268 268 267 264 262 263 265 266 268 272 271 271 272 277 275 278 279 283 287 283 279 278 280 282 277 269 271 271 268 266 267 257 251 251 253 255 254 256 255 256 256 253 247 242 233 222 219 219 211 202 198 197 193 189 189 184 178 179 180 186 186 185
276 276 275 276 279 279 279 277 275 274 272 273 273 269 267 266 265 262 262 269 268 269 271 273 280 278 278 280 281 277 276 276 272 270 268 265 265 274 277 276 268 267 268 268 259 252 251 253 257 257 254 253 254 254 250 241 233 220 213 213 207 204 197 191 191 188 183 183 183 180 178 181 183 181
276 275 278 278 281 281 280 279 277 275 273 272 272 272 269 266 266 268 269 264 265 269 272 271 272 283 286 275 274 279 280 278 274 266 268 266 262 258 254 254 261 263 262 263 263 257 253 255 258 259 256 253 253 253 252 243 230 218 211 207 203 197 193 188 185 183 181 181 180 183 182 180 180 178
274 274 274 278 279 281 279 277 274 273 274 273 272 272 270 269 270 270 267 267 267 270 272 279 280 280 274 275 278 278 276 274 271 272 268 269 268 265 262 265 265 267 265 260 254 250 250 253 257 258 257 254 253 253 253 245 230 216 208 204 202 199 196 187 183 182 180 179 178 179 181 184 184 180
273 275 276 277 281 281 275 272 274 272 270 271 270 270 269 269 268 267 267 269 270 267 267 271 277 274 274 277 273 275 274 284 286 281 271 261 257 255 257 255 257 257 257 251 248 244 245 248 252 254 254 251 250 251 251 247 231 216 206 202 200 199 195 192 184 179 179 178 178 179 180 181 184 184
282 281 280 280 274 272 270 269 270 270 268 267 268 265 267 265 265 266 266 264 263 264 267 271 271 274 273 272 280 277 274 269 265 269 272 273 271 271 262 261 257 256 251 247 245 246 247 253 257 255 249 248 246 246 247 248 233 216 207 202 200 196 191 188 189 184 177 176 177 177 179 180 180 182
278 276 273 272 269 268 267 266 264 263 265 263 268 264 264 264 265 264 264 264 263 263 265 266 269 269 275 276 275 280 278 276 271 259 256 261 268 264 260 254 257 253 250 255 257 249 249 252 254 256 255 254 251 248 247 246 235 216 205 201 198 193 187 184 183 180 181 177 176 175 175 177 177 179
277 274 275 272 271 265 267 269 269 267 265 260 258 258 255 259 260 262 260 261 261 264 262 267 265 263 269 268 278 283 279 278 280 280 272 269 265 266 264 256 248 250 255 254 259 264 254 263 264 264 258 246 243 245 242 244 231 214 202 199 196 188 183 181 179 178 176 177 178 175 174 172 174 176
278 279 278 274 273 275 276 276 276 275 272 269 267 266 262 257 256 255 254 252 246 254 254 249 261 256 263 266 267 272 268 271 277 284 287 287 285 281 267 260 247 240 241 248 257 267 272 268 266 259 261 264 244 245 239 232 224 209 198 195 191 186 182 178 177 177 175 174 175 176 175 173 172 176
288 289 282 281 283 283 281 280 278 278 276 275 272 269 268 267 261 256 254 248 246 242 248 251 247 255 256 264 270 271 277 274 274 275 278 281 283 276 267 260 254 245 266 288 310 291 294 300 289 279 259 253 256 245 235 224 210 205 196 191 187 184 182 179 175 175 175 174 174 175 176 176 172 174
291 288 288 285 283 282 281 281 283 280 278 277 275 274 272 270 267 264 260 260 258 256 260 261 256 257 264 262 266 272 273 280 288 283 280 277 278 283 277 267 260 281 29 334 307 290 295 293 274 277 272 267 260 247 234 218 207 198 195 190 189 183 179 177 176 174 175 175 174 174 175 177 174 174
288 287 289 292 289 289 287 285 281 281 280 277 276 276 275 275 272 271 268 265 263 262 263 263 263 254 263 266 265 266 270 271 273 281 284 286 288 285 285 273 281 297 22 312 294 290 289 283 279 277 272 268 267 257 232 216 202 197 192 191 187 186 181 176 176 175 174 174 173 175 176 177 174 173
289 288 286 287 286 282 286 282 281 281 279 281 281 279 278 277 278 277 273 271 269 266 265 265 266 266 263 267 271 270 267 269 268 270 273 274 275 280 284 300 299 297 313 287 291 283 283 256 275 278 280 275 273 263 238 211 201 194 190 187 186 184 184 178 174 175 174 174 174 174 174 176 174 173
274 284 284 280 285 286 284 283 278 279 277 275 273 271 268 266 266 268 269 269 266 264 260 260 261 263 259 261 263 262 261 259 263 263 269 275 279 282 285 283 276 280 267 259 245 262 284 280 285 280 285 290 280 267 232 205 197 192 188 185 184 182 179 180 177 173 173 173 174 173 173 173 172 174
279 272 277 280 273 277 278 278 284 281 283 278 274 271 268 266 264 264 265 267 268 266 265 260 261 259 257 252 254 254 256 256 258 260 260 257 256 262 266 267 274 269 258 214 222 255 279 264 272 282 287 289 283 257 225 198 193 190 185 184 182 179 178 176 175 175 173 172 172 171 171 172 171 173
280 277 276 282 285 283 286 286 286 291 288 282 276 271 268 265 263 264 265 266 266 267 269 268 264 263 264 256 254 251 255 256 258 263 267 265 268 268 264 265 264 266 258 223 217 254 278 270 266 282 280 281 273 258 217 193 191 187 184 182 180 177 175 173 173 172 171 171 170 169 169 170 171 171
290 289 295 300 299 296 293 293 294 296 298 291 283 276 271 269 263 260 257 255 256 257 262 266 268 270 268 269 267 262 261 262 258 247 252 255 256 258 258 262 259 269 250 242 208 256 249 274 271 281 289 283 264 249 222 189 189 187 185 181 178 177 174 172 171 170 170 170 169 169 168 168 167 167
297 297 302 302 299 297 295 297 298 299 299 295 292 289 286 282 277 275 273 268 269 272 272 271 271 270 267 264 262 260 260 259 257 249 250 257 254 257 258 256 259 261 251 243 186 228 217 316 285 328 301 285 278 237 212 191 184 184 182 181 179 177 174 172 171 170 170 169 169 168 167 166 163 164
305 307 305 304 301 301 301 301 301 300 298 297 291 284 278 274 274 272 269 266 265 265 263 268 269 269 267 261 256 254 252 250 249 249 245 242 245 251 255 252 246 250 245 194 87 291 283 255 288 155 255 297 301 277 204 191 184 184 185 180 180 177 173 172 172 171 169 169 168 168 166 164 163 165
310 309 307 305 305 303 304 304 304 303 301 299 296 288 278 271 270 270 261 262 265 265 266 265 266 266 263 259 257 254 253 250 247 244 244 240 235 238 244 246 241 239 243 248 272 262 265 230 281 305 283 268 285 274 222 187 185 185 180 177 177 173 174 174 170 171 169 168 168 166 165 165 165 166
309 308 307 306 305 305 305 307 307 306 305 305 303 296 293 291 288 279 262 258 255 258 260 260 261 261 259 257 252 250 248 244 242 243 243 240 234 231 235 239 240 243 252 224 215 217 255 272 257 280 279 288 292 272 226 191 186 184 174 178 174 176 176 169 169 167 168 167 167 167 167 167 167 168
309 307 305 302 303 307 310 310 309 309 311 311 304 300 301 305 306 299 275 253 251 252 255 256 260 262 262 261 257 252 254 251 247 245 244 244 237 232 233 233 233 242 256 253 233 242 245 262 231 235 269 271 281 289 242 189 185 173 181 174 170 168 169 167 167 165 161 162 167 167 166 171 171 170
307 306 303 307 311 312 312 312 312 313 314 309 308 308 309 311 315 306 287 269 260 257 259 261 260 260 259 259 254 250 251 256 253 249 244 245 244 238 242 243 244 240 246 248 249 239 242 254 256 243 245 263 272 277 272 208 162 170 174 172 167 167 168 167 163 164 164 162 161 166 168 172 172 169
304 307 311 311 312 314 314 314 315 312 310 310 312 313 313 315 309 313 308 292 272 258 255 257 259 259 258 255 254 245 245 250 254 254 255 250 247 240 236 238 235 234 234 239 243 239 240 243 254 257 249 254 254 265 269 234 170 172 169 165 173 167 165 168 161 162 162 161 162 164 169 170 171 171
314 315 314 313 313 313 315 318 316 313 312 313 314 314 314 310 307 308 307 305 305 298 290 274 261 260 257 253 248 240 237 240 243 245 246 248 246 237 239 240 239 235 235 235 235 235 234 238 244 249 257 256 242 259 263 235 184 169 166 171 164 159 165 165 165 162 162 164 165 170 172 173 172 170
325 316 314 314 317 316 316 317 316 314 314 314 313 313 312 310 307 304 300 300 299 296 291 293 286 268 258 257 251 241 235 235 237 234 236 240 243 237 236 238 246 242 237 232 231 230 234 236 239 236 245 257 255 249 257 237 186 169 169 164 163 172 170 162 162 165 165 164 168 171 170 170 170 174
326 317 317 317 317 317 317 318 316 315 313 312 313 314 313 310 307 304 301 298 291 289 293 291 297 301 289 259 248 243 238 240 239 236 235 235 240 239 242 243 244 244 246 237 229 224 223 227 231 233 233 239 251 262 263 229 186 168 168 167 166 161 162 168 164 165 166 163 164 168 170 169 168 172
322 316 322 325 330 332 329 325 321 321 319 314 312 310 314 313 313 312 311 308 304 300 301 302 304 300 301 295 265 244 243 240 240 232 237 234 239 241 236 241 244 244 247 244 231 226 214 221 223 230 231 231 232 243 262 241 188 167 164 166 165 162 162 162 164 162 159 160 163 161 168 172 171 171
328 331 329 332 331 333 331 328 326 323 320 319 319 318 323 324 322 319 314 309 306 306 303 300 300 299 300 298 296 269 247 241 240 235 232 238 232 238 235 239 240 243 249 250 246 239 230 222 225 230 230 233 232 236 248 243 196 171 160 163 160 159 162 159 158 156 159 162 158 163 166 169 173 171
330 331 333 331 332 330 327 325 323 320 320 321 321 318 315 321 326 324 319 314 310 307 304 300 296 296 298 301 302 303 286 257 243 241 234 237 237 235 236 238 241 241 241 245 244 243 238 230 220 226 227 229 244 253 240 234 197 175 161 160 159 156 158 158 153 156 157 159 164 164 165 165 168 169
332 334 334 329 328 325 324 322 319 319 317 318 319 318 316 312 318 322 321 318 313 309 306 303 301 299 299 298 303 299 296 293 267 245 237 231 235 235 236 233 236 240 237 243 244 245 234 228 213 214 217 216 225 248 235 259 112 190 162 159 161 155 153 151 153 154 157 158 162 162 166 167 168 168
328 332 330 326 321 323 320 318 319 315 313 314 314 314 318 316 312 306 309 312 311 311 311 311 307 305 301 300 298 296 294 292 287 265 242 236 231 233 233 235 232 237 237 239 243 246 234 223 213 210 208 212 212 225 205 304 181 212 180 157 155 154 151 150 150 158 164 160 163 167 170 170 174 176
333 330 326 322 320 316 313 311 312 312 311 316 320 318 310 310 317 316 313 312 312 314 317 314 310 306 302 299 297 295 296 292 291 286 263 237 229 228 231 234 236 234 235 237 238 239 232 221 210 206 199 203 208 203 183 184 152 208 222 176 153 152 150 148 154 159 162 166 168 169 166 177 176 175
333 326 320 317 314 313 312 312 310 311 313 306 304 307 309 307 311 318 318 314 317 317 314 314 311 308 304 300 293 290 289 292 290 288 286 267 239 233 232 233 238 238 233 235 231 234 225 217 205 200 200 202 203 193 178 171 184 171 180 175 155 149 154 155 157 161 160 162 166 157 129 103 93 121
328 320 313 314 312 311 306 308 308 308 309 312 306 295 296 309 315 311 307 316 319 319 317 312 315 312 303 296 292 287 280 278 277 278 276 276 268 240 232 229 232 234 233 233 231 226 219 211 203 200 199 204 198 177 170 175 162 161 164 165 164 165 162 161 161 161 163 164 153 143 137 135 139 132
323 322 319 316 308 308 309 307 306 305 304 303 308 315 313 308 316 317 317 322 321 318 315 311 306 305 303 297 290 286 283 278 276 274 277 276 269 257 235 227 232 230 232 234 228 223 216 209 203 197 187 128 106 97 113 127 151 158 162 169 175 180 179 173 165 164 166 160 158 158 157 161 157 158
322 320 316 318 319 312 304 305 306 306 304 301 301 307 311 311 311 322 325 319 321 318 314 311 308 304 301 298 291 287 280 277 275 275 274 275 273 259 241 231 230 229 228 231 226 222 217 192 171 149 132 146 157 166 170 160 161 168 170 165 167 172 170 183 185 175 162 161 162 164 157 153 153 164
324 321 318 315 312 309 307 305 306 306 305 305 303 299 300 305 320 324 323 326 326 323 317 313 309 303 294 295 293 287 282 278 274 271 272 270 267 260 246 229 227 228 228 233 232 217 165 148 148 165 172 174 176 174 174 177 171 161 155 153 157 157 158 155 151 152 169 189 181 170 167 163 164 174
322 318 316 315 315 315 310 303 305 307 308 307 303 305 306 310 321 324 324 327 327 324 320 316 314 312 308 302 298 290 283 277 274 272 270 271 270 267 250 233 227 227 229 231 220 175 160 165 174 177 176 180 178 180 178 168 165 163 160 158 151 150 152 138 122 134 159 177 185 191 178 155 41 63
319 317 314 313 312 311 309 305 306 306 306 308 307 305 304 310 323 323 324 328 329 327 324 321 317 316 314 308 303 296 290 285 281 276 272 271 269 267 252 232 225 222 223 219 196 173 171 174 178 177 181 182 182 181 170 167 165 161 159 152 155 154 152 152 150 156 157 166 173 153 153 168 110 110